星链-4434 (STARLINK-4434 )

导读

STARLINK-4434是美国太空探索技术公司(SpaceX)星链互联网卫星星座中的一员,于2022年8月12日发射升空。星链项目旨在搭建全球卫星互联网,为全球偏远、欠发达区域以及高需求场景提供低成本、高覆盖的宽带互联网服务,STARLINK-4434进一步扩充了星链低轨卫星星座的组网规模。

基本信息
目录编号:
53501
目录名称:
STARLINK-4434
国际标识:
2022-099AN
轨道中心:
EARTH
卫星名称:
星链-4434
卫星全名:
星链-4434 (STARLINK-4434 )
卫星状态:
在轨 (已飞行1492 天)
发射日期:
2022-08-12 UTC
国别 :
美国 (US)
星等 :
--
该卫星已列入 空间交会检测服务 Space Conjunction Data Service (SCDS) ,当前飞行风险评估等级: 无高风险
轨道信息
数据来源 国际轨道数据
星历时间: 2026-09-12T06:38:15+0800
11小时前
查看轨道信息
半长轴: 6833.245km
偏心率: 0.0000432
轨道倾角: 97.503°
近地点辐角 87.138°
升交点赤经 22.068°
平近点角 272.991°
近地点: 454.812km
远地点: 455.404km
周期: 93.692分钟
每日圈数: 15.36959
详细信息
固有亮度:
5
最大亮度:
2.5
卫星平台:
Starlink v1.5
覆盖范围:
全球
运营商:
太空探索技术公司
运营商所在国:
美国
制造商(研发单位):
太空探索技术公司
制造商所在国:
美国
使用方式:
暂无
卫星简介
星链(Starlink)计划是由太空探索技术公司(SpaceX)提出的一个巨型低轨卫星互联网星座项目,计划在2019年至2024年间在太空搭建由约1.2万颗卫星组成的“星链”网络,其中1584颗将部署在地球上空550千米处的近地轨道,并从2020年开始工作。该卫星仍在工作。
2D轨道图
3D轨道图
轨道高度分析图
轨道倾角分析图
轨道综合分析图
查看轨道综合分析图
交会数据列表
事件ID 空间交会对象 最接近时刻(TCA) 交会距离 交会风险概率(CRP) 交会风险指数(CRI) 操作
CDM_260912-030405-350106-423121
2026-09-12T
03:04:12+0000
2.410 km
极远距离
1.747542E-6 低风险 0.4
与全量物体交会距离演化趋势
与全量物体交会风险概率演化趋势